Theta_e
354 355 355 355 355 354 354 355 354 355 354 354 355 354 354 354 353 353 352 352 354 356 356 356 355 355 355 355 356 356 356 356 357 357 358 359 359 359 359 359 359 358 357 356 355 355 355 354 351 349 348 348 347 345 343 343 343 344 342 341 340 340 339 339 340 340 340 340 340 341 339 338 337 336 336 336 337 337 336 337 337 338 337 337 337
355 355 355 355 356 355 354 355 354 355 355 356 356 355 355 355 355 355 355 354 354 354 356 356 356 356 356 357 357 357 357 357 356 358 358 359 359 358 358 359 359 359 357 356 356 356 356 355 354 350 349 350 350 347 345 342 342 344 343 342 341 340 340 340 340 340 340 341 341 341 339 339 337 337 336 337 336 336 336 337 337 337 337 336 336
355 355 356 355 356 356 355 356 356 356 356 356 356 356 355 355 356 357 357 356 355 354 354 355 355 356 357 357 357 357 357 356 356 357 357 358 357 358 357 358 358 359 358 357 356 356 356 356 355 353 351 350 351 349 348 344 341 342 343 342 341 341 341 341 341 341 340 340 341 341 340 339 338 337 337 337 337 336 337 336 336 336 336 336 336
357 356 356 356 356 356 356 356 356 356 357 356 356 356 356 356 355 356 357 357 357 355 354 355 355 356 357 357 357 357 357 357 356 357 357 356 357 356 356 357 357 359 358 358 358 356 356 356 355 355 352 351 351 350 350 348 344 342 342 343 342 342 341 341 341 342 341 340 341 340 341 340 339 337 337 337 337 337 337 336 337 336 336 336 336
356 357 357 356 356 356 356 357 357 356 356 356 357 356 356 356 355 355 355 356 357 358 357 356 357 357 357 357 357 358 358 358 357 357 357 356 357 356 356 356 357 357 358 358 358 357 356 356 355 355 354 352 351 350 350 350 348 345 342 342 344 343 342 342 342 341 341 341 340 340 341 342 340 338 338 338 337 337 337 337 337 338 337 337 337
358 357 357 357 357 357 356 356 357 357 357 356 356 357 356 356 355 355 354 354 355 356 357 358 358 358 358 357 358 358 358 358 357 357 357 357 357 357 357 356 357 357 357 357 358 357 356 356 355 355 355 353 351 351 350 350 350 349 345 342 343 344 343 342 342 342 342 341 341 340 341 341 341 339 339 338 339 338 337 337 338 338 338 337 338
358 358 358 358 357 357 357 357 357 356 357 356 357 357 356 356 356 355 355 354 354 354 355 357 357 357 358 357 358 359 358 358 358 357 357 357 358 358 358 357 357 357 357 357 357 357 356 356 355 354 354 354 353 352 351 350 349 350 348 345 343 344 345 344 343 343 342 342 341 341 341 341 340 340 339 339 340 339 337 338 338 338 338 338 338
359 359 359 358 358 358 357 358 357 357 357 357 357 356 356 356 356 355 355 354 354 354 353 355 356 357 357 357 357 358 359 359 359 358 358 358 358 358 358 358 358 357 357 357 357 357 356 356 356 355 355 354 353 353 352 351 349 349 349 347 345 344 344 344 343 344 343 343 342 342 341 341 341 341 341 340 339 339 338 338 339 338 338 338 338
361 360 360 359 359 359 358 358 357 357 358 357 357 356 356 356 356 355 355 354 354 354 353 353 355 356 357 357 356 357 358 359 358 358 358 358 359 359 358 358 359 359 358 358 357 357 356 356 356 355 354 354 354 353 352 352 351 349 349 348 347 345 344 344 344 343 344 343 343 342 342 342 341 341 341 340 339 339 338 338 339 338 338 338 338
361 361 361 360 360 359 359 359 359 358 358 358 357 357 356 356 356 356 355 355 354 354 354 353 354 355 356 357 358 357 358 358 358 358 358 358 358 359 359 359 359 359 359 358 358 357 357 357 356 356 355 355 354 354 354 353 352 351 350 349 348 346 345 344 344 343 343 343 343 342 342 342 342 342 341 340 340 340 339 338 339 338 338 339 339
362 362 361 361 360 360 360 359 359 359 359 358 358 358 357 357 356 356 356 355 355 355 354 354 354 355 355 356 357 357 358 357 357 357 358 358 358 358 359 359 359 359 359 359 358 358 357 357 357 356 356 356 356 356 355 354 353 352 352 350 349 348 346 345 344 343 343 343 343 343 342 342 342 342 342 341 340 340 339 338 339 338 338 338 339
363 363 363 363 362 362 360 360 360 359 359 359 359 358 358 357 356 356 355 355 355 355 355 354 354 354 356 356 357 357 357 357 357 357 357 358 358 358 358 359 359 359 359 359 359 358 358 357 358 357 357 357 357 356 356 356 355 354 353 352 350 349 348 346 345 344 343 343 343 343 342 342 342 342 342 342 341 340 339 339 338 338 338 338 338
365 364 364 363 363 362 362 361 361 360 360 359 359 359 358 357 356 355 355 355 355 355 355 356 355 355 355 356 357 357 357 357 357 357 357 357 358 359 358 358 359 359 359 359 359 359 358 358 358 357 357 357 357 357 357 356 356 355 354 353 351 351 349 348 347 346 345 344 343 343 343 342 342 342 341 342 341 341 340 339 339 339 338 338 338
366 365 365 365 365 364 363 363 361 361 361 360 359 359 359 358 357 356 355 355 355 355 355 356 356 356 355 355 357 357 357 358 357 357 358 357 358 359 359 359 358 358 359 359 359 359 358 359 358 357 358 358 358 358 357 357 356 356 355 354 353 351 351 350 349 347 346 345 344 343 343 342 342 341 341 341 342 341 341 340 340 339 339 339 338
364 366 366 367 366 365 365 364 362 362 361 360 360 359 359 358 357 357 356 355 355 355 355 356 356 356 356 356 356 356 357 357 357 358 358 358 358 358 359 359 359 358 359 358 358 359 359 359 359 358 358 358 357 357 358 357 356 356 355 354 353 352 351 351 350 348 347 346 345 344 343 343 342 341 341 341 341 341 341 340 339 339 339 339 339
363 364 365 366 366 365 365 365 363 363 362 361 360 359 359 359 358 358 357 356 356 356 356 356 356 356 357 357 356 357 357 357 358 358 359 359 359 359 359 359 359 358 358 359 358 358 359 359 359 359 358 358 358 358 358 358 357 356 355 354 354 353 352 352 351 350 349 348 347 346 345 344 343 342 342 341 341 341 340 340 339 339 340 339 339
362 363 364 365 366 366 366 366 364 363 362 361 360 360 359 359 359 358 358 357 357 356 356 357 357 357 358 358 357 358 357 357 358 358 358 359 359 360 359 359 358 359 358 358 359 358 359 359 359 359 359 359 359 359 359 358 358 357 356 355 354 353 352 352 351 350 350 349 348 348 347 346 345 343 342 342 341 341 341 341 340 340 340 339 339
362 362 362 363 365 366 366 366 366 364 363 362 361 360 360 359 359 358 358 357 357 356 356 356 357 357 359 359 359 359 358 358 358 359 359 360 359 360 360 359 359 358 359 358 359 359 359 359 358 359 358 359 359 359 359 359 358 357 357 355 355 354 353 353 351 350 350 349 349 348 347 347 346 345 344 343 342 341 341 341 340 340 340 339 339
362 362 362 362 364 365 365 366 366 365 365 363 363 362 361 359 359 359 358 358 358 357 357 356 356 358 358 358 359 360 360 359 359 359 359 360 360 360 361 359 358 358 359 359 359 359 359 359 359 358 358 359 358 358 359 359 358 358 357 356 355 355 355 354 353 353 351 350 349 350 349 349 347 346 345 344 342 342 341 341 341 340 340 340 339
361 362 363 362 362 363 364 366 365 365 366 364 364 363 362 361 360 360 359 359 358 358 357 357 357 357 357 358 359 359 360 360 360 360 359 359 360 360 361 361 359 359 359 359 359 360 360 359 359 360 359 359 359 359 359 359 359 358 357 356 357 356 356 355 355 355 353 352 351 350 350 349 348 346 345 344 343 342 342 342 341 341 340 340 340
362 361 360 362 363 363 364 365 365 365 366 364 364 364 363 362 361 361 360 360 359 359 359 357 358 357 357 358 358 358 359 359 360 360 360 360 360 360 361 362 361 361 360 360 360 360 360 361 360 361 361 361 360 361 360 359 360 359 358 357 357 355 353 354 355 354 353 353 352 351 350 349 347 346 345 344 343 343 343 342 342 341 341 340 340
363 361 360 359 361 364 363 363 365 366 365 365 365 364 364 364 363 362 361 361 360 360 360 359 359 359 358 358 358 359 359 359 359 360 360 361 361 360 361 362 362 362 361 361 361 361 361 362 362 362 363 362 362 363 362 361 361 359 360 359 355 352 353 354 354 353 352 352 351 351 350 349 347 346 345 344 344 343 343 343 342 342 342 341 340
363 363 361 359 361 363 363 364 365 365 366 366 365 364 365 364 364 363 362 362 362 361 361 361 360 360 360 360 360 360 360 360 361 360 361 361 361 361 361 362 361 362 362 362 362 362 362 363 363 363 364 363 363 363 362 363 362 360 362 360 352 350 355 356 352 351 351 350 350 349 350 349 348 347 346 346 345 344 344 344 343 343 342 341 340
364 364 363 360 361 363 364 365 365 365 366 366 366 366 365 365 366 364 364 364 364 364 363 363 363 362 361 362 361 361 362 362 362 362 361 362 361 362 362 362 361 362 362 362 362 362 362 362 362 362 362 362 363 362 363 363 363 362 363 358 348 346 351 352 348 347 346 347 349 349 349 349 349 349 348 346 346 345 345 345 344 343 342 342 341
369 368 364 361 363 364 365 365 366 367 368 367 367 367 366 367 367 366 366 366 365 365 365 364 365 364 363 363 363 363 362 363 363 363 364 364 363 363 362 362 363 362 361 361 361 361 360 361 361 362 361 361 362 362 361 363 362 361 362 356 348 347 350 350 347 345 343 343 346 347 348 350 350 348 347 346 346 345 345 344 343 343 342 342 342
371 372 367 363 364 365 366 367 368 369 369 368 368 367 368 368 368 367 367 367 366 366 366 365 365 365 365 364 364 364 364 363 364 365 366 365 365 365 364 363 363 362 362 362 362 362 361 361 360 361 361 361 360 360 360 360 360 360 359 356 351 350 350 349 347 345 344 343 344 345 347 349 349 347 346 346 346 345 345 344 343 342 342 341 340
369 371 368 364 365 367 367 367 369 370 369 370 369 369 369 369 369 369 368 368 368 367 367 367 367 366 366 366 365 366 366 365 364 365 366 365 365 365 365 364 363 362 362 361 362 361 361 360 359 358 359 359 358 358 358 357 357 357 356 354 352 351 351 350 349 348 347 346 345 346 348 350 349 348 346 346 345 345 345 344 343 342 341 341 340
367 371 369 367 367 368 368 369 370 371 371 371 370 371 371 370 370 370 370 369 369 369 368 367 368 368 367 367 367 367 366 365 363 363 362 362 362 362 362 362 362 362 361 360 359 359 358 357 356 356 355 356 355 356 356 354 353 352 352 351 351 350 350 349 347 347 347 347 347 348 348 349 349 348 346 345 345 345 345 344 342 342 341 340 339
366 369 370 370 370 370 370 371 371 372 372 369 367 367 369 370 371 371 370 371 370 370 369 369 369 369 368 368 368 367 365 364 363 361 361 360 359 358 357 357 356 356 355 355 354 353 353 352 352 351 350 350 349 350 349 348 348 347 347 348 348 349 349 347 344 344 345 345 345 346 346 347 348 347 345 344 344 345 345 343 342 342 341 339 338
366 367 369 371 372 372 372 372 372 372 370 366 361 359 360 364 368 367 367 368 371 371 371 370 370 369 368 368 368 367 366 364 361 358 357 357 355 354 351 349 347 346 345 343 343 343 343 343 343 342 341 340 340 340 340 340 340 340 341 341 342 344 345 345 345 345 345 344 344 344 344 345 346 347 345 342 342 343 344 343 342 341 340 339 337
366 365 367 369 371 373 374 373 373 371 366 363 361 357 353 353 356 357 360 363 367 369 369 370 369 368 366 365 364 362 360 358 355 354 353 351 348 345 342 339 338 337 336 335 335 335 335 336 335 335 335 334 334 334 334 334 334 334 334 334 335 335 336 337 339 340 341 342 343 343 343 344 344 345 345 343 342 341 341 341 341 340 339 338 337
362 363 365 366 368 370 372 373 371 367 361 358 358 356 351 345 342 344 349 354 357 360 360 361 360 359 359 359 359 356 351 348 346 345 344 341 339 337 336 335 334 334 333 333 333 333 333 334 333 333 333 333 332 333 332 332 332 332 332 332 332 333 333 333 334 335 335 337 339 340 342 343 343 344 344 343 342 341 341 340 339 338 338 338 337
358 359 361 364 364 365 367 370 368 362 357 355 352 351 348 342 336 335 338 341 343 345 345 346 347 346 346 346 347 346 342 339 338 337 336 335 335 335 334 334 333 333 334 334 334 334 334 333 333 333 333 332 332 332 332 332 332 332 332 332 332 333 333 333 333 334 334 335 336 337 339 340 342 342 343 342 341 341 340 340 339 338 338 337 336
355 355 356 357 358 358 361 364 363 358 355 352 349 345 343 341 337 335 335 335 335 335 335 336 337 337 336 336 336 336 336 335 335 335 335 335 335 334 334 334 334 334 334 334 334 334 334 334 334 334 333 333 332 332 332 332 332 332 332 332 332 333 333 333 334 334 334 334 335 336 337 338 339 341 341 341 341 340 340 340 339 339 338 337 336
353 353 352 353 353 353 354 356 357 355 351 349 346 342 340 340 339 337 335 335 334 335 335 335 335 334 335 335 335 335 336 336 336 336 336 335 335 334 335 334 334 333 333 333 334 334 335 334 334 333 333 333 332 332 332 332 332 332 332 332 332 332 333 333 334 334 334 335 335 335 336 337 337 338 339 340 340 340 339 338 338 338 337 336 335
350 350 350 349 349 350 350 351 351 351 350 347 344 342 342 342 340 337 336 335 335 335 336 336 336 335 335 336 336 337 337 338 338 337 336 336 335 335 334 332 331 331 332 331 332 333 333 334 333 332 332 332 332 332 332 331 331 331 331 331 331 331 332 332 333 333 334 334 334 335 336 336 337 338 338 338 339 339 339 338 338 337 336 335 334
348 347 347 347 347 347 348 348 348 349 349 348 347 346 345 342 339 337 336 335 336 336 336 336 336 337 336 336 336 337 337 338 338 337 337 337 336 336 334 332 331 332 333 332 331 331 332 333 333 332 332 332 331 331 331 331 330 330 330 330 330 330 330 330 330 330 331 331 332 333 333 334 334 335 335 337 338 337 336 335 334 333 333 333 332
345 344 344 344 344 344 345 344 345 345 346 347 346 346 343 340 338 336 336 335 335 335 336 337 337 337 337 337 337 336 337 338 337 338 337 337 337 337 336 334 334 334 334 334 332 331 331 333 334 332 331 331 330 330 330 330 330 329 329 330 329 328 327 327 327 327 327 328 328 329 328 329 329 329 330 331 332 331 329 328 328 328 327 327 327
341 341 342 342 341 340 340 340 341 342 342 342 343 343 341 338 336 335 335 335 335 336 335 335 335 335 336 337 337 337 337 337 337 338 337 337 337 338 337 336 335 335 335 335 334 332 332 333 333 333 332 332 331 331 331 331 330 329 329 329 328 327 326 326 326 326 326 326 325 325 325 325 326 326 327 327 327 326 325 325 325 324 324 324 323
337 338 339 339 337 336 336 336 336 336 337 338 339 339 338 337 336 336 336 336 336 335 333 331 331 333 335 336 336 336 337 336 337 337 337 337 337 338 338 337 336 335 335 335 334 334 334 334 334 334 333 332 332 331 331 331 330 330 330 329 328 327 326 326 326 325 325 325 325 325 324 324 324 324 325 325 324 324 324 324 323 323 323 323 323
335 334 335 335 334 333 332 332 332 332 332 333 333 334 334 334 334 334 335 334 333 332 330 329 329 330 333 333 334 335 335 335 336 336 336 336 336 337 337 337 336 335 335 335 335 335 335 334 334 333 332 332 331 331 331 331 330 330 329 328 327 326 326 326 325 325 325 325 325 325 324 324 324 324 324 324 324 324 323 323 323 323 323 322 322
333 332 331 331 331 330 329 328 327 328 328 328 328 328 328 329 329 329 329 329 328 327 327 326 327 329 331 332 333 334 333 333 333 333 333 333 334 335 335 336 336 335 335 335 335 335 335 334 334 333 333 332 331 331 331 331 330 329 329 328 327 326 326 326 326 326 325 325 325 325 325 325 324 324 324 323 323 323 322 322 323 322 322 322 323
331 329 329 328 327 326 325 325 325 324 324 324 324 324 324 324 324 324 323 323 323 322 322 322 324 326 328 329 331 332 331 330 330 330 330 330 331 332 332 333 334 334 334 334 333 333 333 334 334 334 333 332 331 331 331 330 330 329 328 328 327 327 327 326 326 326 326 326 326 326 326 325 324 324 323 323 322 322 322 322 322 322 322 322 322
328 326 326 325 324 323 323 322 322 321 321 321 320 320 320 321 320 320 320 319 318 318 318 319 320 323 324 325 327 328 327 325 326 326 326 327 327 327 327 328 329 330 331 331 331 331 332 332 333 333 333 332 332 331 330 330 330 329 328 328 328 327 327 326 326 326 325 324 324 324 325 324 324 323 322 321 321 321 321 321 321 321 321 321 321
325 324 323 322 321 320 320 320 319 319 318 318 317 317 317 317 316 316 315 315 315 315 315 315 317 318 319 319 320 320 319 319 320 320 320 321 321 321 321 322 324 326 327 328 328 328 329 329 330 331 332 333 332 331 330 330 330 329 328 328 328 328 327 325 325 325 324 323 322 322 322 322 323 322 322 321 321 321 321 321 322 321 322 322 322
323 322 321 320 319 319 318 318 317 317 316 316 315 314 314 314 313 313 312 312 312 311 312 312 313 313 313 313 314 314 314 314 314 315 315 315 316 316 317 318 321 323 324 324 324 324 324 325 325 327 329 330 332 331 331 330 329 329 329 329 329 328 327 325 324 323 324 323 322 321 321 322 322 323 323 323 323 323 322 322 322 322 322 322 322
321 320 319 319 319 318 317 317 316 316 315 314 313 313 312 311 311 311 310 310 309 309 309 310 310 310 310 309 310 310 310 310 310 311 311 312 312 313 313 315 318 320 319 319 319 319 319 320 321 322 324 327 329 330 330 330 330 330 329 329 329 328 328 327 325 324 323 322 322 321 321 321 322 323 323 323 323 323 323 323 322 322 322 323 323
319 319 318 318 317 317 316 316 316 315 314 313 312 311 310 309 308 308 308 308 307 307 307 307 307 307 307 307 307 307 307 307 308 308 309 309 310 310 310 312 314 315 316 316 315 315 316 316 317 318 320 322 324 326 327 327 328 329 330 330 329 328 328 328 327 325 324 323 322 322 322 322 322 323 323 323 323 323 323 324 324 324 324 323 324
317 316 316 316 315 314 314 313 313 313 312 311 310 309 308 306 305 305 304 304 304 304 304 305 305 305 305 304 304 305 305 305 305 306 306 306 307 307 308 310 311 311 312 312 312 312 313 314 314 315 316 317 319 320 321 322 324 326 328 329 329 329 329 328 327 326 325 325 324 324 324 324 323 324 323 324 323 323 323 324 325 325 325 324 323
314 314 313 312 312 311 311 310 310 309 309 308 307 306 305 304 303 303 302 302 302 302 302 302 302 302 302 303 303 303 303 303 303 303 303 303 304 305 306 307 306 307 307 308 308 309 311 312 312 312 313 314 315 316 317 317 319 321 322 324 326 328 329 329 328 327 327 326 326 325 325 325 324 324 325 325 325 324 324 324 324 324 323 322 321
312 311 311 310 310 309 308 307 307 306 306 305 305 304 304 304 304 303 303 303 303 302 302 301 301 300 300 301 301 301 301 301 301 301 301 301 302 302 303 302 302 302 303 304 304 306 307 308 309 310 310 311 312 314 314 315 316 317 317 319 321 324 326 328 329 328 328 327 327 326 326 326 326 326 326 326 326 325 324 324 323 322 321 320 319
Wind_Speed
41 41 40 40 39 38 38 39 39 38 37 37 37 38 38 38 39 38 37 36 35 34 33 34 34 33 33 34 34 33 33 33 33 33 33 33 33 33 32 31 31 31 31 31 30 29 29 29 30 31 30 28 29 30 30 29 25 22 23 27 27 26 26 24 17 14 17 20 19 18 17 18 21 23 26 28 27 25 25 25 23 22 21 21 21
42 41 40 39 40 39 39 39 39 39 37 36 37 37 36 37 37 37 37 37 37 36 35 35 34 34 34 35 35 35 35 34 34 35 35 35 35 34 34 33 33 33 33 33 33 32 31 31 31 32 32 31 30 30 31 32 30 26 24 27 30 29 28 28 23 18 18 20 20 19 18 19 21 23 26 28 28 27 27 26 25 24 23 23 23
43 42 40 40 41 40 40 40 39 39 37 37 37 37 36 36 36 35 37 38 38 38 38 37 36 35 35 36 36 36 36 36 36 36 37 37 36 36 35 35 35 35 35 35 35 34 33 34 33 33 33 34 33 32 31 32 33 30 27 28 30 30 29 30 27 22 21 22 23 22 21 21 22 23 25 27 27 28 28 27 25 24 23 23 24
41 41 40 40 40 40 39 39 39 38 37 37 37 37 37 36 35 36 36 36 37 38 38 38 37 37 37 37 37 38 38 38 38 38 38 38 38 38 37 37 37 37 37 37 36 35 35 36 36 35 34 35 35 34 33 33 34 34 31 30 31 31 30 30 30 27 24 23 24 26 25 24 24 24 26 27 28 29 29 27 26 25 24 24 24
38 39 40 40 39 40 40 39 39 39 39 38 38 38 38 37 37 37 37 36 36 37 37 37 37 38 39 39 39 40 40 40 39 39 40 40 40 40 39 39 38 38 38 38 38 37 38 38 38 36 35 35 36 36 35 35 35 35 34 33 32 32 32 31 32 30 27 25 26 26 26 26 25 25 27 29 29 30 29 28 28 27 26 26 25
38 38 38 38 38 39 40 40 39 40 40 39 39 39 39 38 38 39 39 38 37 37 37 37 38 39 40 41 41 41 41 41 41 41 41 40 40 40 40 40 40 40 40 40 39 39 39 40 40 38 36 37 37 37 37 37 37 36 36 36 34 33 33 33 33 32 30 30 28 26 25 27 27 27 28 29 30 31 31 30 30 30 30 29 28
38 38 38 38 37 38 39 40 40 40 40 41 41 41 40 40 40 40 40 40 39 38 37 38 39 40 41 42 42 42 42 41 42 42 41 41 40 40 40 40 41 41 41 41 40 40 40 40 40 39 39 39 40 40 39 38 39 38 38 37 35 33 33 33 33 32 31 30 29 28 28 28 29 29 29 29 30 32 32 31 31 33 34 33 32
38 38 38 38 37 38 39 40 40 40 40 40 41 41 41 41 41 41 40 40 40 40 40 40 41 41 42 43 43 42 41 41 42 42 41 41 41 41 41 41 41 41 41 42 41 41 41 41 41 41 41 42 42 42 41 40 39 39 40 38 35 34 33 33 32 31 30 29 28 29 29 28 28 28 26 26 28 32 35 35 33 34 36 35 34
38 38 38 38 39 40 39 39 39 39 39 39 41 41 41 41 41 40 40 40 41 41 41 41 41 41 43 43 43 42 41 42 43 43 42 42 42 42 41 41 41 41 41 41 41 41 41 41 41 42 42 43 44 43 43 43 41 41 41 39 36 35 34 34 32 30 29 27 27 28 26 26 29 28 26 28 32 35 36 34 33 34 34 34 35
37 37 37 39 40 40 39 38 38 38 39 40 40 41 41 40 40 40 40 40 41 41 41 41 41 42 43 43 43 42 42 43 44 45 44 44 43 42 41 41 40 40 39 39 39 40 40 41 41 42 43 44 44 44 44 45 44 44 43 40 38 37 36 35 33 32 30 28 29 28 25 26 30 32 32 35 37 35 32 32 34 34 29 27 30
36 36 37 39 39 38 38 37 37 38 39 40 40 40 41 40 39 40 40 40 41 41 41 41 42 43 43 43 43 43 44 44 45 46 46 46 45 43 41 40 39 39 38 37 38 38 39 40 40 40 41 43 44 45 46 46 46 46 46 44 41 40 39 37 35 34 32 30 31 30 28 29 33 35 36 36 35 34 34 34 34 30 26 22 22
36 36 37 38 37 37 37 37 37 38 38 39 39 39 39 39 39 39 40 41 40 40 41 42 43 43 43 43 43 43 45 46 46 47 47 48 48 45 42 40 38 38 38 38 38 38 37 38 39 40 41 42 44 44 45 46 47 48 48 47 46 44 43 42 40 38 36 34 33 32 32 32 34 35 37 36 35 35 35 34 33 31 29 26 24
35 36 37 37 37 37 38 38 38 39 39 39 39 38 37 38 39 40 40 41 40 40 41 42 44 44 43 43 43 44 45 46 47 48 49 49 49 48 45 41 39 38 38 38 38 38 38 38 38 39 40 41 42 42 44 45 46 47 49 48 48 47 47 48 48 44 42 40 37 36 37 36 35 38 40 39 36 34 32 33 34 33 31 31 33
33 35 36 36 37 38 38 38 38 39 39 39 38 38 38 39 40 40 39 39 39 40 41 42 43 44 44 44 44 44 45 46 47 48 49 49 48 48 47 45 41 40 39 38 38 39 39 39 38 39 39 39 40 41 42 43 43 44 46 47 48 49 50 52 52 50 47 45 42 42 42 40 40 43 43 40 38 36 35 36 37 36 36 38 40
32 33 35 36 37 37 38 38 38 38 39 39 38 39 40 40 40 40 39 38 39 40 41 41 42 43 43 43 43 43 44 45 45 45 47 47 47 47 46 46 43 42 40 39 39 39 39 39 39 40 40 40 40 39 40 41 40 41 43 45 47 49 51 54 55 53 52 51 49 47 46 44 44 46 43 40 40 42 42 42 42 39 37 36 35
31 32 34 36 37 37 38 37 37 38 38 38 38 38 39 40 40 40 39 38 39 39 40 40 40 41 41 41 41 42 43 41 41 42 43 44 44 44 45 45 44 43 42 40 40 40 40 39 40 40 41 42 41 41 40 39 39 40 41 42 43 45 50 54 55 54 54 54 53 52 50 47 46 46 45 42 42 43 42 40 37 32 28 28 28
31 31 33 36 37 38 39 38 37 38 38 37 37 38 39 40 40 40 39 38 38 39 39 40 39 39 39 39 40 41 41 38 37 38 39 40 41 42 44 44 44 43 43 42 41 41 41 41 41 41 42 43 42 42 41 40 40 40 40 40 39 42 49 50 48 49 53 54 54 55 54 52 50 50 49 47 45 43 39 36 34 31 28 24 23
31 31 32 35 37 39 40 40 39 38 38 38 38 38 39 39 40 40 39 39 39 39 39 39 39 39 39 39 40 40 38 37 35 35 36 36 37 40 42 43 43 43 42 42 42 42 42 42 42 43 43 44 43 42 41 41 42 42 40 37 36 42 46 41 36 41 45 47 50 54 55 56 56 55 53 51 48 45 42 40 38 35 31 27 24
30 32 33 34 37 39 41 41 41 40 39 39 39 39 39 39 40 40 40 40 39 38 38 38 38 39 39 40 40 39 38 36 35 34 34 33 35 38 40 42 41 40 41 41 41 42 42 42 43 44 45 46 44 43 43 42 43 44 41 35 36 43 43 33 32 39 41 42 46 51 55 58 59 59 57 54 50 48 48 47 43 38 34 33 30
27 32 34 34 36 38 40 41 42 41 40 40 39 39 39 38 38 38 38 38 37 36 36 37 37 37 38 38 38 38 37 35 34 33 33 33 34 35 38 41 40 39 40 39 39 39 40 40 42 43 45 46 46 46 46 44 44 45 40 37 40 41 34 29 35 42 43 43 45 48 52 54 55 56 56 53 50 49 50 51 48 44 41 37 34
17 25 30 32 34 36 38 40 41 41 41 41 39 38 38 37 36 37 36 35 35 35 35 35 35 35 35 35 35 35 34 33 33 33 33 34 34 34 37 41 40 39 39 38 38 37 37 37 39 41 43 45 47 48 48 47 47 46 43 42 40 33 28 33 41 42 40 41 41 43 45 45 45 47 49 49 49 48 50 52 52 51 48 42 36
10 16 25 29 31 34 36 37 38 39 39 38 38 36 36 36 35 35 35 34 33 33 34 33 33 32 32 32 31 31 31 31 31 32 33 34 34 34 37 39 39 39 38 37 36 35 35 37 39 40 42 44 46 47 47 47 47 47 48 47 39 33 37 46 47 43 41 37 35 36 39 39 39 40 41 43 45 46 48 51 54 55 53 48 42
9 12 20 27 29 31 33 35 35 35 35 36 36 35 34 34 34 33 33 32 31 31 31 31 30 28 28 28 28 27 27 28 29 30 31 32 33 34 35 36 37 38 38 37 35 35 36 38 39 40 41 42 44 45 46 47 46 47 50 48 38 37 46 50 45 41 40 37 35 37 39 38 37 37 38 39 40 43 46 50 54 55 52 49 49
8 10 16 24 27 29 31 32 33 33 33 33 33 33 32 32 31 32 32 31 29 28 27 27 27 25 24 24 24 24 23 23 25 27 29 30 31 32 33 35 36 37 39 39 37 35 34 34 34 35 35 36 38 40 42 44 45 45 48 42 31 31 42 46 41 36 36 39 40 39 40 40 38 36 36 36 37 43 48 50 51 51 50 51 52
9 9 14 20 24 25 27 29 30 30 31 32 32 31 30 29 28 29 29 28 27 25 24 24 24 23 22 22 22 23 22 22 22 24 27 29 31 32 33 34 35 36 39 39 37 33 31 30 30 31 31 31 32 33 36 39 40 41 42 38 30 30 36 41 38 32 33 40 41 39 42 45 41 36 33 34 39 43 46 47 46 45 47 49 50
11 9 13 17 20 22 23 25 27 27 28 30 31 30 30 29 27 27 27 26 25 23 22 23 22 22 21 21 21 22 23 22 22 22 23 25 27 30 32 33 34 36 38 40 40 38 37 36 34 34 34 33 31 32 33 35 36 36 36 34 30 30 33 36 36 34 35 41 42 42 45 47 41 35 34 38 43 45 45 47 46 43 44 46 45
12 8 13 16 18 22 23 23 24 25 26 27 28 28 29 29 27 26 25 24 23 22 21 21 21 21 21 20 21 23 22 20 19 18 18 17 17 19 21 23 26 28 31 34 36 37 38 38 36 36 37 37 37 37 38 39 38 38 37 35 32 32 33 35 37 38 39 42 44 45 47 47 40 34 35 41 46 47 48 48 44 40 42 44 42
11 6 10 15 18 21 23 24 24 24 22 21 20 20 22 25 25 25 25 25 24 23 22 22 22 22 22 22 22 20 18 18 18 16 14 12 11 10 10 11 12 14 16 18 19 20 21 23 24 25 26 27 29 31 33 34 34 34 34 32 31 32 33 33 35 38 40 41 42 43 44 44 40 34 34 39 45 48 49 47 45 44 44 42 38
9 6 5 13 17 20 22 23 25 23 21 18 15 12 12 16 18 20 22 23 24 24 24 24 25 25 24 22 20 17 17 17 16 14 12 10 8 7 6 6 6 7 7 8 9 10 12 13 15 17 18 19 21 24 25 27 28 29 29 27 26 27 29 29 31 35 37 38 39 39 39 40 40 37 34 37 42 47 47 46 46 46 42 37 37
6 4 1 8 14 18 20 22 23 23 22 21 18 14 10 8 10 11 12 16 19 21 22 22 23 22 20 17 15 16 16 16 15 12 10 9 7 5 4 4 4 5 6 6 8 9 10 11 12 14 15 16 18 19 21 23 25 26 27 26 25 25 26 27 28 30 33 35 36 38 38 38 38 36 34 34 38 42 45 48 49 47 42 39 38
3 3 3 5 10 15 18 20 21 22 23 23 23 21 20 17 14 12 9 7 10 13 14 14 15 16 15 14 13 13 13 13 12 10 8 6 4 3 2 1 1 2 2 3 4 4 4 6 7 9 11 13 15 17 19 20 22 24 26 26 26 26 27 27 27 28 29 30 32 34 36 36 36 36 36 36 37 38 40 43 44 42 39 37 36
8 8 6 6 8 12 16 18 19 21 23 24 24 25 26 25 22 19 17 14 12 12 11 11 11 11 10 10 12 13 13 12 10 8 6 4 3 3 3 4 4 5 4 4 5 6 6 6 8 10 12 13 15 17 18 20 21 22 24 26 27 28 29 29 29 29 29 29 30 31 32 33 34 35 35 36 36 35 33 34 36 37 38 38 39
11 11 10 9 10 11 13 16 19 22 24 24 24 26 27 26 24 23 22 21 18 17 16 14 13 12 12 11 11 12 12 11 10 9 8 7 7 6 6 7 8 9 10 10 11 11 10 9 10 11 12 13 15 17 18 19 20 22 24 25 27 29 30 30 31 30 30 30 30 31 31 31 32 33 35 35 35 34 33 33 33 34 34 33 33
14 13 13 13 13 13 13 16 20 22 24 24 24 24 25 26 26 24 23 22 21 20 20 18 15 15 16 15 15 14 14 13 12 11 10 9 9 9 9 10 11 12 12 14 15 13 12 12 12 12 13 15 17 18 19 21 22 23 24 26 27 29 31 31 31 31 31 31 31 30 31 31 31 31 31 31 31 32 33 33 32 32 33 34 33
15 15 15 16 17 16 16 17 20 22 22 22 24 25 25 25 25 23 21 21 20 20 21 20 18 17 18 18 17 16 16 15 14 13 12 11 11 10 10 12 13 14 15 16 15 14 14 14 14 15 16 18 19 19 20 22 23 24 25 26 28 29 31 31 31 31 31 31 31 31 31 31 31 31 31 30 29 28 28 28 29 30 30 29 28
15 16 16 17 18 19 19 19 20 21 22 23 24 25 24 24 23 23 22 22 22 21 21 21 19 18 18 18 17 16 15 15 14 14 13 13 11 11 12 14 15 16 16 16 16 15 15 15 16 17 17 18 19 20 21 21 23 24 25 27 28 29 30 30 31 31 31 31 31 31 31 30 31 31 30 29 29 28 28 27 27 26 26 24 23
15 16 17 18 19 21 22 21 21 21 23 23 24 24 24 23 23 23 23 22 22 22 22 21 20 19 18 16 14 13 13 12 12 12 13 12 12 13 14 15 15 15 15 16 16 17 16 16 15 16 16 17 17 19 20 21 23 24 25 27 27 27 28 28 28 29 29 28 29 29 29 29 29 29 28 28 26 24 21 17 15 16 20 24 23
19 19 18 20 21 22 24 23 22 23 24 23 23 23 23 23 23 23 23 22 23 23 22 21 19 17 15 13 11 10 10 10 10 11 11 11 11 13 14 13 14 15 15 15 16 16 16 16 15 15 15 15 16 18 20 22 22 22 24 26 26 24 24 24 23 22 22 22 23 23 23 23 23 23 23 21 15 7 2 4 8 11 10 10 13
24 23 22 24 25 25 26 26 25 26 26 24 23 23 23 22 22 23 24 23 23 22 22 21 20 17 13 10 8 7 7 7 7 9 10 11 10 11 12 13 13 13 14 14 15 16 15 15 16 16 16 16 17 19 20 20 20 21 21 22 22 21 21 21 21 20 20 19 19 18 15 12 9 6 3 2 8 13 16 18 23 28 30 29 30
26 26 26 26 27 27 27 28 27 27 27 26 25 24 23 22 21 22 22 22 21 21 22 22 22 21 18 14 11 9 9 9 7 6 8 10 10 9 10 11 11 12 12 13 14 13 13 14 16 17 17 18 18 19 19 18 18 19 18 17 16 16 17 18 18 18 18 19 19 19 17 15 14 15 17 19 21 23 25 27 29 32 34 36 36
26 28 28 28 28 28 28 28 27 26 27 27 26 25 24 22 21 21 21 20 20 20 21 21 23 23 22 20 17 17 18 18 15 12 13 15 14 12 11 9 9 10 11 10 11 11 11 14 16 17 17 17 17 18 17 16 15 15 14 12 11 12 13 14 15 15 16 17 19 19 18 18 19 22 24 24 24 26 28 30 31 33 36 36 36
27 27 27 27 27 28 27 26 25 26 27 27 26 25 24 24 23 23 22 21 19 19 19 20 21 22 21 20 19 19 20 22 21 19 18 19 18 17 16 12 10 10 10 9 10 10 11 13 15 16 16 16 16 16 16 15 14 13 11 8 7 9 11 12 13 13 15 17 18 18 19 20 23 25 25 23 24 25 27 30 32 34 34 33 32
28 28 27 26 26 26 25 24 25 26 26 25 24 24 24 24 23 23 22 21 20 20 20 20 20 20 20 19 17 18 19 20 20 19 19 18 18 18 18 16 13 11 10 11 11 11 11 12 13 12 12 12 12 13 13 13 12 10 7 5 5 7 10 11 12 13 15 17 17 18 20 23 25 26 25 24 23 23 25 27 29 31 31 31 30
28 28 27 27 26 25 24 24 25 24 24 24 24 24 23 23 23 22 21 21 20 20 20 19 19 20 20 18 18 19 19 19 19 18 18 17 17 17 18 17 14 12 11 12 12 11 10 10 9 9 8 9 9 10 10 11 11 9 6 3 4 6 9 10 10 11 13 14 15 16 18 20 22 23 23 23 23 23 24 24 26 28 29 29 28
27 27 27 26 26 25 24 23 23 23 24 24 24 24 24 23 22 21 20 20 20 20 19 19 19 20 20 19 20 20 19 19 19 18 17 17 17 17 17 16 14 14 13 13 13 12 11 10 9 8 7 8 8 8 8 9 10 9 6 3 1 4 6 7 7 7 9 10 11 12 14 15 16 17 18 19 20 21 21 22 23 24 25 26 25
27 26 26 25 24 23 23 23 22 23 23 23 22 23 24 23 21 20 19 19 20 20 20 20 20 20 20 19 19 19 19 19 19 18 17 17 17 17 17 17 16 15 16 15 14 14 13 12 11 10 8 7 7 6 6 6 6 6 6 4 2 2 4 3 2 2 4 6 7 10 12 12 11 10 11 12 12 12 12 13 15 16 18 20 21
27 26 25 25 24 23 23 23 23 23 23 22 22 22 22 22 22 22 23 22 22 22 23 23 23 22 21 21 21 20 20 20 20 20 19 19 18 18 19 19 19 18 18 18 17 17 16 15 14 13 11 9 7 6 5 4 3 3 4 5 4 4 6 6 3 2 3 4 6 8 9 8 7 7 7 8 9 8 8 8 9 10 12 14 16
26 26 25 24 24 23 22 22 23 23 23 23 22 21 21 22 24 25 25 26 26 26 26 27 27 25 25 25 23 21 21 21 22 22 22 22 21 21 22 23 22 21 20 20 21 20 19 18 17 16 14 12 10 8 7 6 4 3 3 4 5 6 7 9 8 7 6 6 7 7 6 5 4 5 6 7 7 8 9 10 9 10 11 13 15
26 26 26 25 24 23 22 22 23 22 22 22 21 21 21 22 23 23 24 26 27 27 27 28 28 27 26 26 24 23 24 25 25 24 23 23 23 24 24 24 24 23 23 23 23 23 22 21 21 19 18 16 14 12 11 11 9 6 6 7 8 9 10 11 12 12 11 10 10 10 9 7 6 6 6 6 7 8 11 12 11 12 13 14 16
27 27 27 26 26 25 24 24 24 23 23 23 22 22 22 23 23 24 26 27 27 27 27 27 27 27 27 26 25 24 25 26 26 24 23 23 23 23 24 24 25 25 24 25 25 24 24 24 25 24 22 20 18 17 16 15 13 11 9 8 9 11 12 13 15 15 14 12 12 12 12 11 10 10 10 9 9 11 14 15 15 15 16 17 18
28 28 28 28 27 27 26 27 27 26 26 26 26 25 26 25 25 26 27 27 27 27 27 26 26 26 26 25 25 24 24 25 25 24 22 22 22 22 22 22 23 23 24 24 25 25 25 26 26 26 26 25 23 21 19 18 16 14 13 10 8 8 9 11 14 16 16 15 13 14 14 14 13 13 14 15 14 15 16 16 16 17 18 19 20
Wind_Direction
200 201 202 203 205 206 207 209 211 213 214 214 214 215 216 216 217 217 216 216 216 217 219 220 221 221 222 224 225 227 228 228 229 230 230 231 232 233 233 232 232 232 231 231 231 232 232 231 229 228 227 229 232 234 235 235 236 239 238 232 227 226 224 218 219 234 237 233 237 241 239 239 240 237 234 233 232 231 234 238 241 243 245 243 240
200 202 202 203 205 205 207 208 210 212 213 215 216 217 216 217 217 216 216 217 216 216 218 219 221 222 222 224 226 227 229 229 229 228 228 230 230 231 231 231 231 231 230 230 231 231 231 232 232 230 228 230 233 235 235 235 234 236 236 231 227 225 224 222 221 226 233 233 232 233 233 235 238 236 232 232 232 231 233 237 239 242 245 245 242
200 202 202 204 205 205 206 208 210 211 213 215 217 218 218 218 216 215 216 217 216 217 218 220 221 222 223 224 226 227 229 230 229 228 227 228 229 230 230 230 230 229 229 230 230 230 229 232 234 233 230 230 233 236 237 236 235 236 235 230 227 226 224 223 222 223 230 233 232 230 229 230 233 232 230 232 233 234 235 239 240 241 243 244 243
200 201 203 205 206 205 206 207 209 210 212 214 217 218 219 219 218 217 216 216 216 217 219 220 220 221 223 224 226 228 229 229 229 228 228 228 229 230 230 230 230 230 230 231 231 230 229 231 234 234 232 231 233 235 237 238 237 236 235 232 229 228 227 226 227 229 231 234 235 232 229 230 232 229 228 230 233 234 238 240 240 241 244 244 245
200 201 203 205 206 205 206 206 208 209 211 213 216 218 219 219 219 219 218 217 217 218 218 219 220 221 223 225 226 228 229 229 228 228 228 228 229 230 231 231 231 231 232 232 232 231 230 231 233 233 231 230 232 234 235 238 239 238 236 234 232 231 231 231 232 233 233 236 239 236 230 230 232 230 227 228 231 234 237 240 240 241 244 244 245
199 201 203 205 206 206 206 206 207 209 211 213 215 217 218 219 219 220 220 219 219 219 218 219 220 221 224 225 226 228 229 228 228 229 229 228 228 229 230 231 232 233 233 233 233 232 231 233 234 233 230 230 231 233 233 235 237 237 236 235 234 233 232 233 234 234 234 237 241 240 234 230 229 229 228 228 230 233 234 236 238 240 241 242 243
198 200 203 205 207 207 207 207 208 209 211 213 215 216 217 218 219 220 221 220 220 220 220 220 221 223 225 226 227 228 228 228 229 229 229 229 228 228 229 230 232 233 234 235 234 234 234 234 234 233 231 231 232 233 233 233 234 235 236 236 235 234 233 234 234 233 233 235 238 239 238 235 231 230 231 232 233 234 234 233 234 236 238 239 240
198 200 202 204 207 209 209 209 209 210 212 213 215 217 217 218 219 220 221 220 221 221 221 222 223 224 225 227 228 228 228 228 229 228 229 229 229 229 230 230 231 232 234 235 235 235 235 236 236 235 234 234 234 234 234 233 233 234 235 235 233 233 234 234 234 233 232 233 236 238 238 237 235 233 233 231 228 230 232 230 231 234 236 237 239
198 199 201 203 207 209 210 210 210 211 212 214 216 217 218 218 219 219 220 220 221 222 222 222 223 224 225 227 228 228 228 228 229 228 228 228 229 230 231 230 231 232 233 235 236 236 236 237 237 238 238 238 237 237 236 235 234 234 235 233 230 230 232 233 232 231 231 232 235 237 236 235 234 232 229 225 224 227 229 228 230 236 237 238 239
198 199 200 204 207 209 209 210 210 211 212 214 216 217 218 219 219 220 221 221 221 222 222 223 223 224 226 226 227 228 228 229 230 230 230 229 229 230 231 232 232 233 234 235 236 237 237 238 239 239 240 241 241 240 239 238 238 238 238 235 230 228 228 229 230 230 229 230 231 231 231 232 232 229 228 228 228 229 228 226 229 234 235 237 241
198 199 202 205 207 207 208 209 211 211 213 214 216 217 218 219 219 220 221 222 222 222 222 222 223 225 226 227 227 227 228 229 230 231 232 231 231 231 232 233 234 234 235 235 236 238 238 239 240 241 242 242 243 243 243 242 241 241 242 240 237 233 230 228 228 228 228 230 231 229 227 230 232 230 230 232 231 228 227 226 228 229 227 228 237
198 201 203 206 206 207 207 209 211 212 213 214 216 217 218 218 219 221 221 222 222 222 222 222 223 225 226 227 227 228 229 230 231 232 233 233 233 232 233 234 235 235 236 237 238 239 239 240 241 242 242 243 243 243 244 244 244 243 243 243 241 240 238 235 233 230 229 230 231 230 228 230 234 232 231 231 231 229 228 228 228 227 225 225 229
199 202 204 205 206 206 208 209 210 212 213 214 215 216 217 218 219 220 222 222 222 222 223 223 224 225 225 227 228 229 230 232 232 232 233 234 234 233 233 234 236 236 237 238 239 239 240 241 242 242 243 243 244 244 244 244 245 244 244 244 242 242 242 242 241 238 235 233 233 233 233 231 233 235 234 232 230 228 227 228 229 229 226 228 232
199 201 203 205 206 206 207 208 209 211 213 213 213 214 215 217 219 220 222 222 222 223 224 224 225 226 226 227 229 230 232 233 233 233 234 235 235 234 234 235 237 238 239 239 240 241 241 242 242 244 245 244 244 243 243 244 244 245 244 243 242 241 242 243 243 241 239 238 237 239 240 237 237 240 239 234 230 228 227 228 230 230 229 232 237
202 202 202 204 205 206 206 207 209 210 211 212 211 212 214 216 218 219 220 222 223 224 225 226 227 227 228 228 230 233 234 234 235 235 235 236 236 235 235 235 237 239 241 242 242 243 243 243 244 246 247 247 246 244 243 243 243 244 244 243 243 242 242 242 242 241 240 240 240 243 245 243 243 244 243 238 233 233 233 234 235 234 234 237 240
204 203 202 204 205 205 206 206 207 209 210 210 210 211 213 214 216 217 219 221 223 225 227 228 229 229 230 230 231 235 237 236 236 237 238 238 237 236 236 236 238 240 241 242 243 244 245 245 246 247 248 249 248 247 246 244 242 242 243 243 244 244 244 245 244 243 243 242 243 245 247 247 247 248 246 241 238 237 235 236 237 234 233 237 239
207 205 203 203 204 205 205 206 207 208 208 208 209 210 212 214 216 216 217 219 221 224 226 228 230 231 232 231 232 235 238 238 238 239 239 239 238 237 236 236 238 240 242 243 244 245 245 245 246 247 249 250 250 249 248 246 243 242 242 243 244 245 248 248 246 246 246 246 246 247 248 248 248 249 248 245 241 238 232 230 231 227 225 229 233
209 207 206 205 204 204 205 206 207 207 207 207 209 211 212 214 215 215 216 218 220 222 225 227 230 231 232 233 234 236 238 238 238 239 239 239 238 237 236 236 238 241 243 244 245 245 246 247 247 248 249 251 251 251 250 246 243 242 241 241 243 246 249 250 248 250 250 249 249 250 249 249 248 248 248 246 243 238 230 228 229 225 221 225 229
213 211 210 208 206 205 205 205 206 207 207 208 209 211 212 213 215 215 216 218 220 222 224 226 229 230 232 234 235 236 238 238 238 238 238 237 237 237 236 235 237 239 242 244 246 247 247 248 249 249 251 253 254 253 252 248 244 243 241 239 241 247 251 252 251 251 250 247 247 247 247 247 246 246 245 245 243 238 234 233 232 225 222 225 227
222 218 215 212 209 207 205 205 206 207 208 209 210 211 212 213 214 215 216 218 220 222 224 226 228 230 232 233 235 236 237 238 237 237 237 237 236 236 234 233 234 238 241 243 245 247 247 249 250 251 252 255 255 255 254 251 247 246 242 237 240 247 252 254 253 252 249 246 246 246 247 247 246 245 244 243 242 238 236 236 234 229 226 226 224
239 228 222 216 211 209 207 207 207 208 208 209 210 211 212 212 212 213 215 216 218 221 223 225 228 231 233 234 235 236 237 238 237 238 238 237 237 235 233 232 234 236 239 242 243 245 247 249 251 252 253 255 257 258 257 255 253 250 245 240 241 247 253 253 252 253 253 251 250 249 250 250 248 246 244 242 240 238 236 236 235 232 230 227 223
268 240 227 220 215 211 209 208 208 208 208 208 208 210 211 212 212 212 213 215 217 219 222 225 228 231 234 235 236 237 238 238 239 239 239 239 238 237 236 237 238 238 239 241 243 245 248 250 252 254 254 256 259 260 260 259 257 254 252 248 242 243 252 254 253 254 255 256 256 254 253 251 249 247 245 242 240 239 238 237 236 234 232 229 226
288 255 230 221 217 213 211 209 208 207 207 206 206 207 208 209 210 211 211 213 215 218 221 223 226 230 233 235 237 238 239 239 239 240 240 240 240 240 240 242 243 241 240 243 245 248 250 253 255 258 258 258 260 262 263 264 262 260 261 257 243 240 251 254 252 253 256 259 260 257 255 254 250 248 246 243 242 241 240 239 238 235 233 230 227
296 265 236 222 217 213 211 209 206 205 205 204 204 205 206 206 207 209 210 211 213 216 219 221 224 229 232 235 236 237 238 239 240 242 243 242 242 243 245 247 247 246 245 247 249 251 253 255 257 260 261 262 263 264 265 266 266 266 267 264 249 244 252 253 250 250 254 258 259 258 258 257 253 250 248 245 245 245 243 242 240 236 233 231 228
312 267 238 224 216 211 208 206 204 203 202 201 201 202 202 202 204 205 207 209 211 213 216 218 221 226 230 233 236 237 238 241 243 245 245 244 244 246 247 248 248 246 245 248 251 251 253 257 259 262 264 265 266 267 267 267 268 269 269 267 260 254 255 254 250 247 247 252 256 257 259 259 256 253 251 249 248 247 244 242 239 234 231 230 228
328 272 234 221 213 206 202 199 198 199 199 199 200 200 199 199 200 201 203 207 209 212 214 216 220 225 229 232 235 238 241 242 241 240 240 242 244 245 247 249 250 248 249 251 254 256 257 258 260 262 265 267 270 272 272 273 274 274 274 273 268 261 256 252 249 243 241 247 252 255 258 261 260 254 249 247 247 246 243 239 236 230 225 224 224
337 288 231 214 203 198 194 190 190 192 194 195 197 198 198 198 198 199 201 204 207 210 212 214 218 222 226 231 234 238 239 236 231 231 233 237 241 242 244 247 249 250 252 255 258 261 263 264 265 266 269 271 273 275 276 277 278 279 278 277 273 267 262 257 251 247 244 246 251 255 259 262 260 252 243 241 242 243 242 238 234 229 224 219 218
336 309 223 204 194 190 187 184 182 183 184 186 188 191 196 197 198 201 204 206 209 211 212 215 219 222 225 229 231 230 229 226 224 224 225 226 225 224 225 230 237 243 250 255 260 266 269 271 274 275 277 280 281 282 284 285 285 285 285 283 280 275 271 265 257 252 250 249 251 255 258 260 259 253 243 239 239 241 240 235 232 230 224 216 215
330 331 203 188 185 183 179 178 178 173 166 161 159 165 185 196 199 202 207 210 213 215 216 217 220 222 224 224 221 215 211 213 214 213 214 217 218 217 216 219 228 239 248 255 262 270 276 281 285 289 293 297 299 299 300 300 300 299 298 296 293 288 281 271 259 255 255 255 254 256 258 259 260 258 249 240 239 241 240 235 232 231 225 217 216
331 336 140 161 171 175 173 173 173 166 157 150 141 128 128 156 178 189 203 213 217 218 221 223 223 220 215 208 206 209 208 201 195 195 202 210 217 226 234 242 252 260 265 270 273 275 280 287 294 301 307 312 313 311 310 311 309 306 305 304 301 297 292 284 275 269 266 262 259 258 259 259 261 260 253 243 240 240 237 233 231 228 223 217 219
38 41 77 127 152 164 170 172 168 160 153 149 141 126 110 103 107 116 128 158 186 197 205 210 210 208 205 193 181 180 181 177 174 178 186 194 204 221 234 253 285 298 293 280 276 290 309 317 325 333 334 331 328 324 320 317 312 309 308 307 304 301 298 293 291 289 284 277 271 266 262 259 258 257 254 248 244 241 236 232 231 228 224 219 219
81 83 89 109 130 147 161 166 160 151 146 143 140 133 119 105 95 93 100 109 121 132 140 147 151 158 169 175 166 156 150 150 154 157 159 159 157 139 111 95 83 74 75 88 88 69 45 23 9 0 350 339 332 327 321 315 311 308 307 305 303 302 299 296 295 294 290 286 283 279 273 268 263 260 257 253 250 246 241 235 231 228 225 222 220
75 87 99 112 119 128 144 152 150 146 144 142 139 135 129 121 110 101 98 101 105 109 111 114 119 123 125 132 140 141 138 135 133 133 134 132 129 123 111 96 84 76 71 70 66 55 40 24 10 357 345 334 328 325 321 316 313 311 307 304 301 301 301 300 298 294 289 286 284 282 280 278 273 269 265 259 254 250 246 240 234 229 227 226 224
69 76 89 102 106 110 124 138 143 143 143 143 140 135 131 128 123 114 106 102 99 98 99 103 109 115 115 114 116 119 120 120 118 116 117 117 115 109 97 88 80 70 61 55 49 39 26 14 3 353 345 339 336 333 328 324 321 317 312 308 305 304 304 303 300 295 291 288 284 281 280 279 276 274 271 267 262 256 249 243 238 231 228 227 222
76 76 80 89 93 96 105 119 131 136 138 137 135 132 127 124 120 115 111 108 102 97 95 97 102 106 106 104 104 106 108 107 103 100 98 100 101 96 87 79 72 62 54 48 40 32 23 13 4 359 354 348 344 339 332 327 324 321 318 316 313 311 309 306 302 297 293 289 285 283 281 279 277 274 272 270 267 261 253 248 243 237 234 231 224
82 80 81 84 88 91 93 98 109 121 129 130 129 126 123 120 116 112 110 110 108 105 101 99 102 104 102 98 98 100 102 101 96 91 87 86 86 82 75 70 63 56 49 42 33 27 23 16 7 1 354 347 342 338 331 327 326 326 325 325 322 318 315 312 308 305 300 295 291 289 286 282 279 275 270 266 262 259 258 257 252 246 240 232 221
84 82 84 86 89 93 94 92 95 107 118 124 125 123 120 116 113 111 109 108 109 109 107 106 107 107 104 101 99 99 100 98 93 87 82 79 74 67 63 62 57 49 42 35 27 20 17 14 7 358 349 341 338 337 333 332 333 334 334 333 329 325 322 320 318 316 310 303 299 296 292 288 284 279 275 271 264 259 259 259 255 247 236 222 207
85 84 87 90 91 93 93 91 92 99 106 112 118 120 118 114 111 109 107 106 106 105 103 103 101 98 98 102 106 107 107 105 97 86 78 73 66 59 54 51 47 41 35 29 22 16 12 8 1 353 347 343 342 341 340 339 339 340 340 338 336 336 338 339 339 337 330 321 315 310 304 299 295 289 285 281 272 255 215 139 119 107 110 126 124
87 87 90 91 89 88 87 87 87 89 93 97 104 110 111 109 109 108 105 104 101 96 90 85 78 74 79 90 99 108 109 96 85 79 71 63 58 53 47 43 39 33 26 20 16 13 8 2 356 352 352 353 350 348 347 345 343 343 344 343 343 349 356 358 359 359 356 352 349 346 342 339 339 338 340 115 121 114 109 110 113 109 104 102 102
89 89 90 90 86 83 82 83 83 83 85 88 93 99 102 103 105 105 102 99 94 88 81 74 66 64 69 72 72 76 72 57 53 66 61 53 49 44 36 33 29 23 18 13 10 7 1 356 356 356 357 357 353 349 347 346 344 343 345 346 349 358 7 11 13 15 16 17 19 20 23 30 45 66 84 95 103 107 108 107 107 108 108 108 109
93 90 90 90 88 84 81 80 80 82 84 85 87 90 92 93 94 95 92 89 85 81 77 71 66 67 71 72 73 74 69 61 61 68 64 56 55 52 41 30 22 20 16 8 2 359 355 354 357 359 359 355 352 349 347 345 345 347 349 351 358 12 25 30 31 35 39 41 42 43 44 51 61 68 76 84 91 98 103 104 104 105 106 108 111
97 93 90 89 88 86 83 81 82 85 86 85 85 86 87 88 88 87 86 84 82 79 74 69 67 70 73 74 76 79 74 67 66 66 60 55 54 53 48 43 39 36 30 18 8 2 355 351 354 358 358 354 351 348 346 344 346 350 353 358 16 37 49 52 54 60 64 65 65 65 66 70 75 78 79 83 89 94 98 101 103 104 105 108 112
101 96 93 91 89 88 86 86 86 85 84 84 84 84 85 85 84 82 81 79 77 74 69 65 64 67 69 72 76 77 72 66 63 61 56 52 51 49 45 40 39 40 40 34 26 18 8 2 359 358 357 356 354 351 348 345 345 349 354 9 45 64 70 73 76 79 81 81 83 85 87 88 91 92 92 93 95 96 99 103 106 109 111 114 116
101 97 95 93 90 89 87 87 86 85 85 86 86 84 83 83 80 77 76 74 71 69 66 62 62 64 63 65 68 69 63 59 58 58 56 53 52 49 43 37 35 38 42 39 33 27 22 18 12 4 360 0 2 2 359 352 347 346 353 23 80 90 89 88 87 87 91 94 95 97 100 102 103 106 108 109 110 110 111 113 115 117 121 124 125
99 96 94 92 89 87 86 86 86 87 86 85 83 80 80 79 76 73 73 72 73 72 68 64 65 66 63 62 64 64 61 59 58 57 56 56 54 50 43 37 36 39 39 34 29 24 20 16 9 1 355 356 2 12 18 10 0 355 354 1 88 114 111 105 98 98 108 112 111 113 116 117 117 118 120 122 123 123 126 129 130 131 135 138 138
98 96 93 91 89 87 86 85 85 86 84 82 79 78 78 77 75 72 72 73 75 75 71 67 67 67 64 64 65 64 63 62 59 55 54 54 54 52 48 44 43 43 39 33 29 26 21 15 8 3 357 355 359 7 20 26 23 15 5 352 318 213 178 158 129 124 141 144 142 139 138 134 129 130 135 137 134 129 127 131 134 135 139 143 145
95 94 93 91 90 88 87 85 84 83 81 78 76 75 76 75 74 75 75 76 76 74 72 71 71 70 69 69 68 65 64 63 61 58 55 54 53 56 56 54 51 49 45 40 36 31 26 22 17 13 7 3 0 2 8 15 20 16 6 351 320 267 236 227 230 238 218 198 182 168 159 148 138 140 148 150 147 142 141 144 150 154 156 158 161
96 95 94 94 92 90 88 86 85 83 82 80 77 76 76 76 75 75 75 76 77 76 75 75 75 75 74 74 72 69 67 66 64 62 60 58 59 62 63 61 58 56 53 49 44 39 36 33 29 25 21 16 11 9 6 359 345 325 314 311 306 288 264 249 245 247 247 237 217 202 196 191 178 170 167 166 167 168 168 171 180 190 192 191 188
98 97 96 95 93 92 91 90 89 89 88 86 81 78 77 77 75 74 74 75 75 76 76 75 74 72 72 71 70 67 67 67 66 63 61 61 63 65 66 65 62 58 56 53 48 45 43 42 39 35 32 27 23 20 16 9 359 341 316 296 289 287 281 270 259 252 251 250 241 230 228 232 228 214 200 195 196 196 194 195 205 215 217 214 208
96 95 95 94 93 93 93 93 93 92 92 90 88 85 83 81 80 78 78 77 76 74 73 71 70 68 67 66 64 62 62 63 63 61 59 60 62 63 64 64 61 58 56 54 51 48 47 46 44 42 39 35 32 29 26 21 14 5 351 331 305 290 285 280 268 257 252 253 250 243 240 239 233 222 218 225 231 229 224 223 224 224 220 215 208
95 95 94 94 94 94 94 94 93 93 94 94 92 91 89 87 84 82 80 78 76 74 71 69 67 65 64 62 61 59 58 58 58 57 55 54 54 55 56 56 55 54 54 53 50 49 48 46 45 44 42 40 38 35 31 28 23 16 7 357 336 308 291 281 270 260 254 254 251 244 239 242 245 243 241 245 249 247 239 232 225 217 210 204 198